Regional Weather Roundup
Issued by NWS

Home | Current Version | Previous Version | Text Only | Print | Product List | Glossary On
Versions: 1 2 3 4 5 6 7 8 9 10 11 12 13 14 15 16 17 18 19 20 21 22 23 24 25 26 27 28 29 30 31 32 33 34 35 36 37 38 39 40 41 42 43 44 45 46 47 48 49 50
000
ASUS43 KMKX 252221
RWRWI

WISCONSIN REGIONAL WEATHER ROUNDUP
NATIONAL WEATHER SERVICE MILWAUKEE/SULLIVAN WI
500 PM CDT SAT APR 25 2015

NOTE: "FAIR" INDICATES FEW OR NO CLOUDS BELOW 12,000 FEET WITH NO
SIGNIFICANT WEATHER AND/OR OBSTRUCTIONS TO VISIBILITY.

WIZ001-002-006>008-014>016-023>028-252300-
NORTHWEST WISCONSIN

CITY           SKY/WX    TMP DP  RH WIND       PRES   REMARKS
SUPERIOR ARPT  SUNNY     40  29  65 NE16      30.01R WCI  32
ASHLAND        SUNNY     45  27  49 NE18      30.00R
HAYWARD        SUNNY     52  23  32 NE22G28   29.92R
SIREN          SUNNY     60  25  26 NE13G21   29.88R
CUMBERLAND     SUNNY     59  21  23 E8        29.86R
RICE LAKE      PTSUNNY   61  21  22 NE13      29.86S
CHETEK         SUNNY     60  24  25 N9        29.85S
LADYSMITH      MOSUNNY   61  25  25 NE7       29.87S
EAU CLAIRE     SUNNY     60  19  20 NE10G20   29.84S
MENOMONIE      SUNNY     61  18  18 E12G17    29.84S
NEW RICHMOND   SUNNY     61  15  17 E12G18    29.85S
OSCEOLA        SUNNY     62  23  22 E10       29.88R
$$

WIZ003>005-009-010-017-018-252300-
NORTH CENTRAL WISCONSIN

CITY           SKY/WX    TMP DP  RH WIND       PRES   REMARKS
MANITOWISH WTR SUNNY     54  15  21 NE12      29.89R
ARBOR VITAE    SUNNY     57  15  19 N14       29.87R
WOODRUFF       SUNNY     57  15  19 N14       29.87R
RHINELANDER    SUNNY     55  15  20 E9G17     29.87S
EAGLE RIVER    SUNNY     56   7  14 E12       29.87S
LAND O LAKES   SUNNY     55  14  20 NE9G16    29.89S
PHILLIPS       SUNNY     57  24  27 NE12G18   29.86S
TOMAHAWK       MOSUNNY   56  15  20 CALM      29.86S
MEDFORD        SUNNY     57  20  23 NE9G20    29.84S
MERRILL        MOSUNNY   57  19  22 E12       29.86R
$$

WIZ029-030-035-036-043>047-252300-
CENTRAL WISCONSIN

CITY           SKY/WX    TMP DP  RH WIND       PRES   REMARKS
WAUSAU         CLOUDY    57  16  20 E8G17     29.84R
MOSINEE        MOSUNNY   55  18  22 E13       29.85
MARSHFIELD     MOSUNNY   58  18  21 E13G21    29.84S
STEVENS POINT  MOSUNNY   53  19  25 E13       29.85F
WAUPACA        MOSUNNY   54  11  18 NE9G18    29.88S
WAUTOMA        MOSUNNY   54   4  13 E13       29.86R
WISC RAPIDS    MOSUNNY   55  15  20 E10       29.86S
CAMP DOUGLAS   PTSUNNY   56  15  19 E9G23     29.82S
$$

WIZ011>013-019>022-031-037>040-048>050-252300-
NORTHEAST WISCONSIN

CITY           SKY/WX    TMP DP  RH WIND       PRES   REMARKS
ANTIGO         MOSUNNY   53  14  21 NE7G16    29.87R
SHAWANO        CLOUDY    51  19  28 E13       29.90R
OCONTO         MOSUNNY   47  12  24 NE8G17    29.91S
STURGEON BAY   MOSUNNY   46  14  27 NE12      29.93S
GREEN BAY      PTSUNNY   48  23  37 NE16      29.90R
MANITOWOC      CLOUDY    44  12  27 N13G20    29.88S
APPLETON       PTSUNNY   48  10  21 NE14G21   29.88R
CLINTONVILLE   CLOUDY    52  18  25 E16       29.89R
OSHKOSH        SUNNY     51  26  37 NE18      29.86R
$$

WIZ032>034-041-042-053>061-252300-
SOUTHWEST WISCONSIN

CITY           SKY/WX    TMP DP  RH WIND       PRES   REMARKS
LA CROSSE      PTSUNNY   60  29  30 NE9       29.81F
SPARTA         PTSUNNY   56  12  17 NE17      29.83S
VIROQUA        PTSUNNY   53  30  41 E10       29.81S
BOSCOBEL       CLOUDY    54  32  43 NE10G22   29.82R
PRAIRIE DU CHI CLOUDY    52  35  51 NE12G20   29.81R
PLATTEVILLE    CLOUDY    49  38  65 NE16      29.79R
$$

WIZ056-057-062-063-064-067-068-252300-
SOUTH CENTRAL WISCONSIN

CITY           SKY/WX    TMP DP  RH WIND       PRES   REMARKS
REEDSBURG      CLOUDY    52  23  32 E10G18    29.83R
BARABOO/DELLS  CLOUDY    52  21  29 NE14      29.82S
LONE ROCK      CLOUDY    51  29  42 NE18      29.82R
MINERAL POINT  CLOUDY    50  36  57 NE13G22   29.79R
MADISON        CLOUDY    49  32  52 NE20      29.81S
MIDDLETON      CLOUDY    50  33  50 NE13G18   29.82R
WATERTOWN      PTSUNNY   48  32  53 NE13G20   29.81S
MONROE         CLOUDY    46  36  66 NE22G29   29.78R
JANESVILLE     CLOUDY    46  34  61 NE18G24   29.78R
$$

WIZ051-052-058>065-066-070>072-252300-
SOUTHEAST WISCONSIN

CITY           SKY/WX    TMP DP  RH WIND       PRES   REMARKS
MILWAUKEE      CLOUDY    40  30  67 N16G24    29.83S WCI  31
WAUKESHA       CLOUDY    43  25  49 NE15G21   29.83S
MILWAUKEE/TIMM CLOUDY    43  25  49 NE20      29.84S
RACINE         CLOUDY    40  32  73 N18       29.83R WCI  31
BURLINGTON     CLOUDY    42  28  58 NE12      29.80R
KENOSHA        CLOUDY    42  32  67 NE16      29.80R
FOND DU LAC    MOSUNNY   52  21  29 NE20      29.85R
SHEBOYGAN      SUNNY     48  22  35 NE17G28   29.85F
WEST BEND      CLOUDY    45  21  39 NE9       29.84R
JUNEAU         CLOUDY    50  25  37 E14       29.84S
$$

LSZ147-162-252300-
LAKE SUPERIOR

STATION/POSITION TIME  TEMP    WIND        PRES    WAVE
                       AIR SEA DIR/SP/G            HT/PER
                 (UTC) (F)     (DEG/KT/KT) (MB)    (FT/S)
W MID LAKE BUOY  2150   35 35   50/ 12/ 14 1017.8S   3/ 4
DEVILS ISLAND    2200   36      60/ 17/ 18 1017.2R
PORT WING        2140   38      30/ 17/ 20 1016.3R
SAXON HARBOR     2100   38      30/  9/ 12 1015.2S
$$

LMZ867-665-643>646-252300-
LAKE MICHIGAN

STATION/POSITION TIME  TEMP    WIND        PRES    WAVE
                       AIR SEA DIR/SP/G            HT/PER
                 (UTC) (F)     (DEG/KT/KT) (MB)    (FT/S)
CHAMBERS ISLAND  2100   42      30/ 12/ 16 1013.2F
NORTHPORT PIER   2100   44      60/ 13/ 17 1012.9F
SISTER BAY       2117   52     100/ 16/ 26   N/A
KEWAUNEE LAKESHO 2100   41      30/ 14/ 23 1011.4S
SHEBOYGAN LAKESH 2200   39      10/ 21/ 24 1011.9F
PORT WASHINGTON  2140   43      30/ 16/ 24 1011.5S
MILWAUKEE LAKESH 2200   38      20/ 21/ 25   N/A
KENOSHA   LAKESH 2200   40      10/ 23/ 26 1009.1R
$$

TC  - TEMPERATURE IN CELSIUS
VSB - VISIBILITY IN STATUTE MILES
WCI - WIND CHILL INDEX
HX  - HEAT INDEX




USA.gov is the U.S. government's official web portal to all federal, state and local government web resources and services.